FENGYUN 1C DEB

Satellite information

Favourite Embed

Satellite Type and Status

DEBRISIN ORBIT

Key statistics

Satellite FENGYUN 1C DEB at a glance.

Uptime

9665

Days in orbit

Revolutions

≈ 14.2

Per day

Orbit

SSO

Sun Synchronous Orbit

Inclination

99.0

Latest

Satellite identification and parameters

Extended collection of information and parameters for FENGYUN 1C DEB.

Object identification

Identified? True

Debris? True

Object name: FENGYUN 1C DEB

International designator: 1999-025BDL

Object number (NORAD): 31018

Object ID (CCSDS): 31018

Country: PEOPLES REPUBLIC OF CHINA (PRC)

Current information (Y/N): Y

RCS size: SMALL

Orbital parameters

Period: 101.666 minutes

Inclination: 99.0267 deg

SMA: 7215.687 km

Apoapsis: 879.654 km

Periapsis: 795.45 km

RAAN: 23.8021 deg

Eccentricy: 0.00583479

Argument of periapsis: 262.2855 deg

Mean anomaly: 97.1691 deg

Mean motion: 14.16400967 rev/day

Mean motion (dot): 0.00004422 rev/day2

B* drag term: 0.0022104232 1/REarth

Two-line elements (TLE)

Creation date: Oct. 25, 2025, 3:11 a.m.

Reference frame: TEME

Reference center: EARTH

Epoch: Oct. 24, 2025, 5:27 p.m. UTC

TLE line 0: 0 FENGYUN 1C DEB

TLE line 1: 1 31018U 99025BDL 25297.72711111 .00004422 00000-0 22104-2 0 9997

TLE line 2: 2 31018 99.0267 23.8021 0058348 262.2855 97.1691 14.16400967953617

Live tracking on map

Real-time ground track for satellite FENGYUN 1C DEB.

In-orbit conjunctions

A list of the most updated potential collisions computed for object FENGYUN 1C DEB.

Target Orbit TCA Probability of collision Miss distance Type
CZ-6A DEB LEO 2025-03-01 21:26:56 0.0001111486 1000.0 (m) DEBRIS
COSMOS 1275 DEB LEO 2024-11-28 19:04:44 0.0001259318 95.0 (m) DEBRIS

Associated space launch

Chinese polar orbiting meteorological satellite

FENGYUN 1C DEB was lifted into orbit during the mission ‘Long March 4B | Feng Yun 1C’, on board a Long March 4B space rocket.

The launch took place on May 10, 1999, 1:33 a.m. from Launch Complex 7.

For more information about the launch, click the button.

Launch to space Long March 4B | Feng Yun 1C
Long March 4B | Feng Yun 1C

Agency: N/A

Status: Launch Successful

Launch date: May 10, 1999, 1:33 a.m. UTC

Rocket: Long March 4B

Launch pad: Launch Complex 7

Location: Taiyuan Satellite Launch Center, People's Republic of China

...

Latest news about this satellite

There are no fresh news available about this satellite. Check back as we update our databases every day.


Newsletter sign-up

Weekly statistics, charts and insights to help you stay on top of the space industry.